This is the latest recevied weather packets stored in our database for station/object W4SKW. If no packets are shown the sender has not sent any weather packets the latest 1 day(s).
| Time | Temp. | Humidity | Pressure | Rain* | Wind** | Luminosity | Snow |
|---|---|---|---|---|---|---|---|
| 1777980901 | 7.78° C | 97% | 1016.2 hPa | 0 mm | 0 m/s | 35 W/m² | - |
| 1777980596 | 7.78° C | 97% | 1015.9 hPa | 0 mm | 0 m/s | 21 W/m² | - |
| 1777980293 | 7.78° C | 97% | 1015.9 hPa | 0 mm | 0 m/s | 21 W/m² | - |
| 1777979990 | 7.22° C | 97% | 1015.7 hPa | 0 mm | 0 m/s | 19 W/m² | - |
| 1777979684 | 7.22° C | 97% | 1015.7 hPa | 0 mm | 0 m/s | 14 W/m² | - |
| 1777979381 | 7.22° C | 97% | 1015.7 hPa | 0 mm | 0 m/s | 14 W/m² | - |
| 1777979078 | 7.22° C | 97% | 1015.6 hPa | 0 mm | 0 m/s | 10 W/m² | - |
| 1777978774 | 7.22° C | 97% | 1015.6 hPa | 0 mm | 0 m/s | 8 W/m² | - |
| 1777978471 | 7.22° C | 97% | 1015.4 hPa | 0 mm | 0 m/s | 5 W/m² | - |
| 1777978167 | 7.22° C | 97% | 1015.4 hPa | 0 mm | 0 m/s | 2 W/m² | - |
| 1777977865 | 7.22° C | 97% | 1015.3 hPa | 0 mm | 0 m/s | 2 W/m² | - |
| 1777977561 | 7.22° C | 97% | 1015.5 hPa | 0 mm | 0 m/s | 1 W/m² | - |
| 1777977259 | 7.22° C | 97% | 1015.3 hPa | 0 mm | 0 m/s | 0 W/m² | - |
| 1777976956 | 7.22° C | 97% | 1015.5 hPa | 0 mm | 0 m/s | 0 W/m² | - |
| 1777976653 | 7.22° C | 97% | 1015.6 hPa | 0 mm | 0 m/s | 0 W/m² | - |
| 1777976348 | 7.22° C | 96% | 1015.4 hPa | 0 mm | 0 m/s | 0 W/m² | - |
| 1777976043 | 7.22° C | 96% | 1015.2 hPa | 0 mm | 0 m/s | 0 W/m² | - |
| 1777975740 | 7.22° C | 96% | 1015.2 hPa | 0 mm | 0 m/s | 0 W/m² | - |
| 1777975436 | 7.22° C | 96% | 1015.3 hPa | 0 mm | 0 m/s | 0 W/m² | - |
| 1777975132 | 7.22° C | 96% | 1015.2 hPa | 0 mm | 0 m/s | 0 W/m² | - |
| 1777974830 | 7.22° C | 96% | 1015.4 hPa | 0 mm | 0 m/s | 0 W/m² | - |
| 1777974525 | 7.22° C | 96% | 1015.4 hPa | 0 mm | 0 m/s | 0 W/m² | - |
| 1777974233 | 7.22° C | 96% | 1015.6 hPa | 0 mm | 0 m/s | 0 W/m² | - |
| 1777973918 | 7.22° C | 96% | 1015.6 hPa | 0 mm | 0 m/s | 0 W/m² | - |
| 1777973616 | 7.78° C | 96% | 1015.8 hPa | 0 mm | 0 m/s | 0 W/m² | - |
* Rain latest hour (hover to see other rain measurements)
** Current wind speed in m/s (hover to see current wind gust speed)